This demonstration page uses our WeatherBlox Daily Observations layout. Learn more.

41.55636, -103.73856

Hourly Observations for April 20, 2015

Temp ( °F °C ) Dew Point ( °F °C ) Humidity (%) Winds ( mph kmh ) Pressure ( in mb ) Visibility ( mi km ) Precip ( " mm )
12:53 am 00:53 Clear 30 -1.1 25 -3.9 82 82 WNW 8 13 30.05 1018 10 16.0934 0 0
1:53 am 01:53 Clear 30 -1.1 24 -4.4 79 79 WNW 7 11 30.04 1017 10 16.0934 0 0
2:53 am 02:53 Cloudy 31 -0.6 25 -3.9 79 79 WNW 7 11 30.04 1017 10 16.0934 0 0
3:53 am 03:53 Cloudy 31 -0.6 24 -4.4 76 76 WNW 7 11 30.03 1017 10 16.0934 0 0
4:53 am 04:53 Cloudy 31 -0.6 25 -3.9 79 79 undefined N/A 30.02 1017 10 16.0934 0 0
5:53 am 05:53 Cloudy 31 -0.6 26 -3.3 82 82 WNW 6 9 30.02 1017 10 16.0934 0 0
6:53 am 06:53 Cloudy 32 0 27 -2.8 82 82 VRB 6 9 30.03 1017 10 16.0934 0 0
7:53 am 07:53 Mostly Cloudy 37 3 N/A N/A W 10 17 30.04 1017 10 16.0934 0 0
8:53 am 08:53 Sunny 40 4.4 27 -2.8 60 60 W 13 20 30.03 1017 10 16.0934 0 0
9:53 am 09:53 Sunny 46 7.8 29 -1.7 51 51 W 10 17 30.01 1016 10 16.0934 0 0
10:53 am 10:53 Sunny 49 9.4 25 -3.9 39 39 W 15 24 29.98 1015 10 16.0934 0 0
11:53 am 11:53 Mostly Cloudy 51 10.6 27 -2.8 39 39 WNW 17 28 29.96 1014 10 16.0934 0 0
12:53 pm 12:53 Mostly Cloudy 52 11.1 28 -2.2 40 40 NW 18 30 29.94 1014 10 16.0934 0 0
1:53 pm 13:53 Cloudy 51 10.6 27 -2.8 39 39 NNW 15 24 29.93 1013 10 16.0934 0 0
2:53 pm 14:53 Cloudy 55 12.8 24 -4.4 30 30 NW 18 30 29.89 1012 10 16.0934 0 0
3:53 pm 15:53 Partly Cloudy 57 13.9 24 -4.4 28 28 WNW 21 33 29.86 1011 10 16.0934 0 0
4:53 pm 16:53 Partly Cloudy 57 13.9 23 -5 27 27 NNW 17 28 29.85 1011 10 16.0934 0 0
5:53 pm 17:53 Sunny 57 13.9 24 -4.4 28 28 NNW 18 30 29.85 1011 10 16.0934 0 0
6:53 pm 18:53 Mostly Sunny 52 11.1 25 -3.9 35 35 NNW 10 17 29.85 1011 10 16.0934 0 0
7:53 pm 19:53 Clear 46 7.8 26 -3.3 46 46 N 7 11 29.86 1011 10 16.0934 0 0
8:53 pm 20:53 Clear 43 6.1 26 -3.3 51 51 Calm 29.88 1012 10 16.0934 0 0
9:53 pm 21:53 Clear 40 4.4 26 -3.3 58 58 NW 6 9 29.9 1013 10 16.0934 0 0
10:53 pm 22:53 Clear 40 4.4 27 -2.8 60 60 W 5 7 29.9 1013 10 16.0934 0 0
11:53 pm 23:53 Clear 34 1.1 27 -2.8 76 76 WNW 6 9 29.92 1013 10 16.0934 0 0

Powered by AerisWeather